USA 283

Last updated on Jan. 17, 2020, 4:31 a.m. UTC

1 43339U 18036A   20016.51871374 -.00000321  00000-0  00000+0 0  9991
2 43339   0.0017 295.4200 0000952  38.8637 101.9457  1.00270058  1815
UTC
Height (km)
Latitude
Longitude
Inclination
Orbital Period
UTC large
Height (km)
Speed (km/s)
/
Latitude / Longitude
Inclination (degrees)
Orbital Period (minutes)
Azimuth
Elevation
Range (km)
Doppler Factor
iOS Compass Heading
iOS Angle

Next 30 passes for location: Hong Kong

Rise time Rise Azimuth (degrees) Set time Set Azimuth (degrees) Duration Max altitude (degrees)

No matching passes for this satellites